Location: Hartford
(41.7640°N, 72.6860°W)
Time: 04:56:58
(UTC-05:00)

Amateur Radio Satellites - All Passes

Search period start: 09 February 2016 04:26
Search period end: 10 February 2016 04:26
Location: Hartford, 41.7640°N, 72.6860°W

Satellite Date Start Highest point End Downlink Frequencies (MHz)
Time Altitude Azimuth
M-CUBED/EXP-1 PRIME 09 Feb 04:28:08 04:31:29 68° 290° (WNW) 04:35:00 437.505
CUBESAT XI-V 09 Feb 04:31:55 04:36:32 65° 75° (ENE) 04:41:14 437.345
Cosmos 2491 09 Feb 04:33:40 04:37:47 14° 285° (WNW) 04:41:56 435.465 / 435.565
AUBIESAT-1 09 Feb 04:38:53 04:42:14 61° 291° (WNW) 04:45:48 437.475
STRAND 1 09 Feb 04:49:52 04:52:58 16° 61° (ENE) 04:56:03 437.568
AIST 2 09 Feb 05:01:43 05:04:34 18° 249° (WSW) 05:07:25 435.215
CUTE-I 09 Feb 05:12:32 05:16:32 21° 93° (E) 05:20:32 437.470
AO-7 09 Feb 05:13:24 05:20:55 39° 300° (WNW) 05:28:24 29.400- 29.500
SO-50 09 Feb 05:17:29 05:22:23 74° 305° (NW) 05:27:22 436.795
YUBILEINY 09 Feb 05:24:35 05:30:23 19° 299° (WNW) 05:36:16 435.215
PHONESAT 2.4 09 Feb 05:25:20 05:28:20 33° 200° (SSW) 05:31:19 2401.200-2431.200
Cubesat XI-IV 09 Feb 05:25:33 05:30:06 27° 95° (E) 05:34:38 437.490
HORYU 2 09 Feb 05:27:05 05:30:34 23° 294° (WNW) 05:34:02 437.375
Cosmos 2504 09 Feb 05:34:59 05:43:25 62° 282° (WNW) 05:52:15 435.465 / 435.565
LilacSat-2 09 Feb 05:52:57 05:56:32 40° 98° (E) 06:00:07 437.200
GOMX 1 09 Feb 05:53:45 05:54:55 11° 88° (E) 05:56:05 467.674
CUBESAT XI-V 09 Feb 06:12:15 06:14:23 13° 271° (W) 06:16:32 437.345
BRITE-PL 09 Feb 06:18:35 06:23:13 46° 97° (E) 06:27:28 437.365/2234.400
STRAND 1 09 Feb 06:26:29 06:31:34 67° 258° (WSW) 06:36:42 437.568
PRISM 09 Feb 06:32:34 06:36:31 45° 72° (ENE) 06:40:31 437.425
HO-68 09 Feb 06:37:26 06:40:48 14° 88° (E) 06:44:09 435.675
CUTE-I 09 Feb 06:51:39 06:56:52 51° 289° (WNW) 07:02:03 437.470
GONETS M04 09 Feb 06:57:39 07:01:50 15° 75° (ENE) 07:06:01
SO-50 09 Feb 07:01:01 07:03:45 15° 324° (NW) 07:06:30 436.795
Cubesat XI-IV 09 Feb 07:05:16 07:10:15 39° 292° (WNW) 07:15:13 437.490
CUTE 1.7 + AOD 2 09 Feb 07:11:05 07:13:48 16° 92° (E) 07:16:31 437.475
DOVE 4 09 Feb 07:14:49 07:18:53 42° 98° (E) 07:22:50 437.250
SEEDS 09 Feb 07:19:15 07:21:44 15° 91° (E) 07:24:12 437.485
LilacSat-2 09 Feb 07:28:27 07:30:31 14° 294° (WNW) 07:32:35 437.200
GOMX 1 09 Feb 07:29:08 07:33:36 63° 285° (WNW) 07:37:47 467.674
Cosmos 2504 09 Feb 07:35:21 07:38:56 13° 305° (NW) 07:42:34 435.465 / 435.565
AAUSAT CUBESAT 2 09 Feb 07:36:28 07:38:40 14° 91° (E) 07:40:51 437.432
CANX-2 09 Feb 07:54:50 07:59:04 57° 100° (E) 08:03:18 2200.000
BRITE-PL 09 Feb 07:57:58 08:01:17 19° 297° (WNW) 08:04:26 437.365/2234.400
O/OREOS (USA 219) 09 Feb 08:02:44 08:07:13 84° 292° (WNW) 08:11:45 437.305
TIGRISAT 09 Feb 08:04:40 08:04:53 10° 61° (ENE) 08:05:05 435.000
PRISM 09 Feb 08:09:38 08:12:05 15° 268° (W) 08:14:33 437.425
CINEMA 3 09 Feb 08:15:22 08:19:31 69° 101° (ESE) 08:23:40 145.822/145.860
HO-68 09 Feb 08:22:17 08:29:32 81° 105° (ESE) 08:36:44 435.675
CUBEBUG 2 09 Feb 08:28:08 08:31:55 32° 97° (E) 08:35:45 437.445
UWE-3 09 Feb 08:30:53 08:34:23 25° 95° (E) 08:37:56 435.000/436.395/437.385
Oscar 11 09 Feb 08:34:29 08:38:08 26° 95° (E) 08:41:45 145.826/435.025
COMPASS 1 09 Feb 08:40:46 08:45:01 89° 283° (WNW) 08:49:14 437.405
UNISAT 6 09 Feb 08:45:05 08:48:49 29° 69° (ENE) 08:52:32 437.425
CUTE 1.7 + AOD 2 09 Feb 08:45:48 08:49:53 43° 287° (WNW) 08:53:56 437.475
Cosmos 2499 09 Feb 08:46:26 08:54:06 36° 85° (E) 09:01:54 435.465 / 435.565
GONETS M04 09 Feb 08:48:27 08:57:06 78° 95° (E) 09:05:49
DOVE 4 09 Feb 08:53:35 08:56:15 16° 296° (WNW) 08:58:53 437.250
SEEDS 09 Feb 08:53:36 08:57:41 47° 287° (WNW) 09:01:47 437.485
DELFI C3 09 Feb 08:56:02 08:59:17 23° 95° (E) 09:02:32 145.870
POLYITAN 1 09 Feb 09:09:12 09:11:18 14° 63° (ENE) 09:13:23 437.675
QB50P2 09 Feb 09:09:43 09:11:58 14° 63° (ENE) 09:14:13 145.880/145.840
AAUSAT CUBESAT 2 09 Feb 09:10:22 09:14:27 50° 287° (WNW) 09:18:30 437.432
ZACube-1 09 Feb 09:26:19 09:30:32 76° 103° (ESE) 09:34:48 437.345
ANTELSAT 09 Feb 09:29:26 09:33:47 89° 66° (ENE) 09:38:05 437.575/2403.000
CANX-2 09 Feb 09:32:15 09:34:28 14° 296° (WNW) 09:36:40 2200.000
FUNcube-1 09 Feb 09:35:48 09:40:01 88° 283° (WNW) 09:44:18 145.935
TIGRISAT 09 Feb 09:36:36 09:40:56 80° 256° (WSW) 09:45:14 435.000
POPSAT HIP 1 09 Feb 09:38:11 09:41:43 26° 68° (ENE) 09:45:15 437.405
NANOSAT C BR1 09 Feb 09:43:14 09:46:53 29° 69° (ENE) 09:50:32 145.865
RS-15 09 Feb 09:44:33 09:52:32 23° 100° (E) 10:00:43 29.354- 29.394
DUCHIFAT 1 09 Feb 09:45:01 09:48:39 29° 69° (ENE) 09:52:18 145.980
O/OREOS (USA 219) 09 Feb 09:46:29 09:47:23 10° 312° (NW) 09:48:16 437.305
PCSat 09 Feb 09:49:05 09:53:25 25° 108° (ESE) 09:57:47 145.827
QB50P1 09 Feb 09:50:29 09:54:22 36° 71° (ENE) 09:58:15 145.935-145.965
HUMSAT D 09 Feb 09:51:54 09:55:52 41° 98° (E) 09:59:51 437.325/437.525
CINEMA 3 09 Feb 09:55:08 09:56:06 11° 298° (WNW) 09:57:05 145.822/145.860
CUBEBUG 2 09 Feb 10:05:13 10:08:23 21° 293° (WNW) 10:11:35 437.445
UWE-3 09 Feb 10:07:16 10:10:49 27° 291° (WNW) 10:14:24 435.000/436.395/437.385
AIST 1 09 Feb 10:10:15 10:14:30 50° 93° (E) 10:18:47
Oscar 11 09 Feb 10:10:29 10:14:13 28° 291° (WNW) 10:17:56 145.826/435.025
HO-68 09 Feb 10:11:19 10:16:26 21° 304° (NW) 10:21:32 435.675
UKube-1 09 Feb 10:11:56 10:13:13 11° 90° (E) 10:14:30 .
ESTCUBE 1 09 Feb 10:12:27 10:15:13 16° 91° (E) 10:17:58 437.505/2401.250
CUBEBUG 1 09 Feb 10:16:27 10:18:06 12° 90° (E) 10:19:45 437.445
AO-85 09 Feb 10:17:22 10:22:41 73° 120° (ESE) 10:28:12 145.980
DX 1 09 Feb 10:21:12 10:24:07 17° 93° (E) 10:27:02 434.975-435.025
UNISAT 6 09 Feb 10:21:58 10:25:32 24° 265° (W) 10:29:04 437.425
DELFI C3 09 Feb 10:30:44 10:34:11 27° 291° (WNW) 10:37:38 145.870
Cosmos 2499 09 Feb 10:38:27 10:46:53 53° 284° (WNW) 10:55:33 435.465 / 435.565
POLYITAN 1 09 Feb 10:42:29 10:46:39 57° 259° (W) 10:50:49 437.675
QB50P2 09 Feb 10:43:10 10:47:20 54° 260° (W) 10:51:31 145.880/145.840
GONETS M04 09 Feb 10:48:23 10:54:54 23° 296° (WNW) 11:01:31
BUGSAT 1 09 Feb 10:49:08 10:53:21 81° 76° (ENE) 10:57:33 437.445
50 SAT 09 Feb 10:51:37 10:55:16 43° 99° (E) 10:58:54 437.505
JAS-2 09 Feb 10:52:51 10:56:55 16° 57° (ENE) 11:00:49 435.910
ZACube-1 09 Feb 11:05:35 11:06:14 10° 298° (WNW) 11:06:54 437.345
CUSAT 1 09 Feb 11:05:37 11:08:44 14° 56° (ENE) 11:11:30 437.405
VELOX 1 09 Feb 11:12:09 11:16:32 59° 101° (E) 11:20:52 145.980
POPSAT HIP 1 09 Feb 11:13:51 11:17:26 27° 264° (W) 11:21:02 437.405
NANOSAT C BR1 09 Feb 11:19:10 11:22:36 24° 265° (W) 11:26:04 145.865
DUCHIFAT 1 09 Feb 11:20:55 11:24:21 24° 265° (W) 11:27:47 145.980
QB50P1 09 Feb 11:27:11 11:30:16 19° 266° (W) 11:33:21 145.935-145.965
HUMSAT D 09 Feb 11:28:28 11:31:12 17° 294° (WNW) 11:33:57 437.325/437.525
AISAT 09 Feb 11:28:40 11:33:07 87° 283° (WNW) 11:37:30 437.250
PCSat 09 Feb 11:31:17 11:36:30 47° 305° (NW) 11:41:47 145.827
DANDE 09 Feb 11:31:59 11:36:38 18° 57° (ENE) 11:40:38 436.750
UKube-1 09 Feb 11:45:24 11:49:43 65° 286° (WNW) 11:53:58 .
ESTCUBE 1 09 Feb 11:47:54 11:52:19 50° 288° (WNW) 11:56:42 437.505/2401.250
AIST 1 09 Feb 11:49:57 11:52:26 15° 291° (WNW) 11:54:55
CUBEBUG 1 09 Feb 11:50:28 11:54:48 62° 286° (WNW) 11:59:05 437.445
RS-15 09 Feb 11:52:03 12:03:13 89° 302° (WNW) 12:15:03 29.354- 29.394
SPROUT 09 Feb 11:55:51 12:00:03 53° 100° (E) 12:04:12 437.525
DX 1 09 Feb 11:56:24 12:00:31 42° 289° (WNW) 12:04:35 434.975-435.025
AO-85 09 Feb 11:59:32 12:03:48 23° 319° (NW) 12:08:06 145.980
TISAT 1 09 Feb 12:07:53 12:11:24 26° 96° (E) 12:14:52 437.305
SO-50 09 Feb 12:09:25 12:12:45 18° 39° (NE) 12:16:00 436.795
Oscar 19 09 Feb 12:12:53 12:18:01 66° 73° (ENE) 12:23:10 437.125/150
50 SAT 09 Feb 12:26:55 12:28:56 14° 295° (WNW) 12:30:56 437.505
AO-7 09 Feb 12:31:24 12:36:10 17° 47° (NE) 12:40:56 29.400- 29.500
JAS-2 09 Feb 12:33:18 12:40:59 76° 73° (ENE) 12:48:02 435.910
Gurwin Techsat 1B 09 Feb 12:38:57 12:43:57 44° 70° (ENE) 12:48:59 435.225
Cosmos 2499 09 Feb 12:40:49 12:42:25 10° 308° (NW) 12:44:00 435.465 / 435.565
CUSAT 1 09 Feb 12:46:12 12:52:15 77° 263° (W) 12:56:45 437.405
VELOX 1 09 Feb 12:50:10 12:52:31 14° 298° (WNW) 12:54:52 145.980
DANDE 09 Feb 13:13:39 13:20:54 83° 262° (W) 13:26:21 436.750
ITAMSAT 1 09 Feb 13:20:24 13:25:28 56° 71° (ENE) 13:30:33 435.822/435.867
PCSat 09 Feb 13:20:32 13:21:19 10° 327° (NNW) 13:22:05 145.827
SWISSCUBE 09 Feb 13:25:48 13:30:15 36° 98° (E) 13:34:40 437.505
SPROUT 09 Feb 13:33:16 13:35:35 14° 297° (WNW) 13:37:53 437.525
YUBILEINY 09 Feb 13:33:30 13:42:01 48° 75° (ENE) 13:50:25 435.215
Cosmos 2504 09 Feb 13:39:00 13:40:29 10° 52° (NE) 13:41:57 435.465 / 435.565
Cosmos 2491 09 Feb 13:40:43 13:47:26 26° 81° (E) 13:54:09 435.465 / 435.565
TISAT 1 09 Feb 13:43:31 13:47:00 26° 292° (WNW) 13:50:29 437.305
M-CUBED/EXP-1 PRIME 09 Feb 13:43:40 13:45:02 12° 61° (ENE) 13:46:24 437.505
SO-50 09 Feb 13:49:00 13:53:50 77° 239° (WSW) 13:58:28 436.795
AUBIESAT-1 09 Feb 13:53:42 13:55:20 13° 61° (ENE) 13:56:56 437.475
Oscar 19 09 Feb 13:54:51 13:57:47 15° 270° (W) 14:00:44 437.125/150
ITUPSAT 1 09 Feb 14:02:04 14:06:54 76° 103° (ESE) 14:11:43 437.325
RS-15 09 Feb 14:07:25 14:17:26 34° 329° (NNW) 14:27:57 29.354- 29.394
BEESAT 09 Feb 14:10:56 14:15:46 86° 285° (WNW) 14:20:34 436.000
AO-7 09 Feb 14:19:10 14:27:27 69° 67° (ENE) 14:35:45 29.400- 29.500
Gurwin Techsat 1B 09 Feb 14:19:51 14:24:04 24° 266° (W) 14:28:20 435.225
JAS-2 09 Feb 14:20:49 14:26:26 22° 269° (W) 14:31:47 435.910
KKS-1 09 Feb 14:23:42 14:26:42 18° 93° (E) 14:29:40 437.445
ISS 09 Feb 14:45:01 14:47:05 16° 132° (SE) 14:49:10 145.825
HORYU 2 09 Feb 14:48:28 14:52:25 33° 69° (ENE) 14:56:24 437.375
DANDE 09 Feb 14:59:47 15:02:08 12° 286° (WNW) 15:04:18 436.750
ITAMSAT 1 09 Feb 15:01:49 15:05:17 18° 268° (W) 15:08:46 435.822/435.867
SWISSCUBE 09 Feb 15:03:57 15:07:51 25° 294° (WNW) 15:11:44 437.505
M-CUBED/EXP-1 PRIME 09 Feb 15:15:49 15:19:24 47° 255° (WSW) 15:22:46 437.505
AUBIESAT-1 09 Feb 15:26:08 15:29:38 42° 255° (WSW) 15:32:58 437.475
Cosmos 2504 09 Feb 15:27:47 15:36:16 55° 76° (ENE) 15:44:10 435.465 / 435.565
YUBILEINY 09 Feb 15:30:41 15:38:34 38° 275° (W) 15:46:25 435.215
Cosmos 2491 09 Feb 15:34:49 15:43:28 68° 281° (W) 15:52:10 435.465 / 435.565
ITUPSAT 1 09 Feb 15:41:51 15:44:07 13° 300° (WNW) 15:46:22 437.325
STARS 09 Feb 15:43:20 15:47:41 70° 101° (ESE) 15:52:02 437.465
MOZHAYETS 4 09 Feb 15:48:52 15:53:27 58° 100° (E) 15:58:02
BEESAT 09 Feb 15:51:46 15:52:47 11° 302° (WNW) 15:53:47 436.000
KKS-1 09 Feb 15:59:16 16:03:28 43° 289° (WNW) 16:07:38 437.445
AO-7 09 Feb 16:14:02 16:20:47 27° 266° (W) 16:27:36 29.400- 29.500
ISS 09 Feb 16:20:02 16:23:14 59° 328° (NNW) 16:26:27 145.825
HORYU 2 09 Feb 16:25:34 16:29:03 23° 265° (W) 16:32:32 437.375
RS-15 09 Feb 16:26:08 16:35:00 23° 5° (N) 16:44:07 29.354- 29.394
CUBESAT XI-V 09 Feb 16:29:30 16:32:27 16° 91° (E) 16:35:22 437.345
O/OREOS (USA 219) 09 Feb 16:33:51 16:37:23 21° 56° (NE) 16:40:54 437.305
CUTE-I 09 Feb 16:34:23 16:39:11 35° 67° (ENE) 16:44:00 437.470
LilacSat-2 09 Feb 16:35:47 16:38:46 22° 69° (ENE) 16:41:44 437.200
BEESAT 3 09 Feb 16:42:30 16:46:18 45° 118° (ESE) 16:50:07 437.485
Cubesat XI-IV 09 Feb 16:47:39 16:52:42 46° 70° (ENE) 16:57:48 437.490
GOMX 1 09 Feb 17:00:23 17:03:55 18° 64° (ENE) 17:07:22 467.674
BEESAT 2 09 Feb 17:05:50 17:09:45 52° 118° (ESE) 17:13:41 435.950
HO-68 09 Feb 17:08:32 17:11:22 13° 49° (NE) 17:14:13 435.675
AO-85 09 Feb 17:10:23 17:13:09 14° 33° (NNE) 17:15:50 145.980
STARS 09 Feb 17:21:47 17:23:29 12° 299° (WNW) 17:25:12 437.465
Cosmos 2504 09 Feb 17:21:51 17:29:10 33° 277° (W) 17:36:06 435.465 / 435.565
MOZHAYETS 4 09 Feb 17:27:25 17:30:08 16° 297° (WNW) 17:32:53
BRITE-PL 09 Feb 17:28:02 17:33:37 59° 73° (ENE) 17:39:05 437.365/2234.400
Cosmos 2491 09 Feb 17:38:14 17:42:12 14° 304° (WNW) 17:46:12 435.465 / 435.565
ISS 09 Feb 17:57:54 18:00:11 17° 347° (NNW) 18:02:28 145.825
CUTE 1.7 + AOD 2 09 Feb 18:05:15 18:07:07 13° 63° (ENE) 18:09:00 437.475
CUBESAT XI-V 09 Feb 18:05:34 18:10:09 52° 287° (WNW) 18:14:40 437.345
LilacSat-2 09 Feb 18:09:45 18:12:59 25° 264° (W) 18:16:12 437.200
O/OREOS (USA 219) 09 Feb 18:12:38 18:16:58 42° 254° (WSW) 18:21:17 437.305
SEEDS 09 Feb 18:12:47 18:14:11 11° 62° (ENE) 18:15:36 437.485
CUTE-I 09 Feb 18:14:36 18:19:14 30° 264° (W) 18:23:54 437.470
DOVE 4 09 Feb 18:19:37 18:24:32 50° 73° (ENE) 18:29:13 437.250
BEESAT 3 09 Feb 18:21:20 18:24:16 19° 315° (NW) 18:27:13 437.485
Cubesat XI-IV 09 Feb 18:28:51 18:32:59 23° 266° (W) 18:37:10 437.490
AAUSAT CUBESAT 2 09 Feb 18:29:11 18:29:45 10° 61° (ENE) 18:30:18 437.432
PCSat 09 Feb 18:35:53 18:40:20 25° 47° (NE) 18:44:44 145.827
GOMX 1 09 Feb 18:36:09 18:41:32 64° 259° (W) 18:46:43 467.674
STRAND 1 09 Feb 18:36:49 18:41:41 40° 98° (E) 18:46:31 437.568
Cosmos 2499 09 Feb 18:39:58 18:43:01 12° 54° (NE) 18:46:00 435.465 / 435.565
RS-15 09 Feb 18:40:50 18:52:04 41° 38° (NE) 19:03:29 29.354- 29.394
BEESAT 2 09 Feb 18:45:08 18:47:56 18° 316° (NW) 18:50:45 435.950
CANX-2 09 Feb 18:47:50 18:51:46 40° 72° (ENE) 18:55:44 2200.000
AO-85 09 Feb 18:49:36 18:54:47 66° 54° (NE) 18:59:30 145.980
HO-68 09 Feb 18:50:38 18:57:40 62° 69° (ENE) 19:04:45 435.675
AIST 2 09 Feb 18:58:02 19:02:12 84° 125° (SE) 19:06:25 435.215
GONETS M04 09 Feb 18:58:33 19:06:42 40° 72° (ENE) 19:14:48
BRITE-PL 09 Feb 19:08:16 19:12:23 20° 269° (W) 19:16:26 437.365/2234.400
CINEMA 3 09 Feb 19:16:47 19:21:24 66° 74° (ENE) 19:25:48 145.822/145.860
CUBEBUG 2 09 Feb 19:26:41 19:30:26 29° 70° (ENE) 19:34:05 437.445
UWE-3 09 Feb 19:28:35 19:31:52 22° 68° (ENE) 19:35:08 435.000/436.395/437.385
Oscar 11 09 Feb 19:29:52 19:33:07 21° 67° (ENE) 19:36:23 145.826/435.025
COMPASS 1 09 Feb 19:31:35 19:35:40 62° 75° (ENE) 19:39:48 437.405
ISS 09 Feb 19:35:33 19:37:35 15° 7° (N) 19:39:37 145.825
CUTE 1.7 + AOD 2 09 Feb 19:38:18 19:42:27 60° 260° (W) 19:46:39 437.475
DELFI C3 09 Feb 19:43:38 19:45:56 15° 65° (ENE) 19:48:14 145.870
SEEDS 09 Feb 19:45:11 19:49:19 67° 258° (WSW) 19:53:31 437.485
PRISM 09 Feb 19:49:02 19:53:14 72° 102° (ESE) 19:57:22 437.425
DOVE 4 09 Feb 19:58:49 20:02:25 19° 267° (W) 20:05:56 437.250
AAUSAT CUBESAT 2 09 Feb 20:00:31 20:04:38 75° 258° (WSW) 20:08:48 437.432
STRAND 1 09 Feb 20:16:26 20:20:38 26° 295° (WNW) 20:24:49 437.568
AIST 1 09 Feb 20:18:33 20:20:43 13° 68° (ENE) 20:22:52
PCSat 09 Feb 20:18:45 20:24:04 56° 246° (WSW) 20:29:20 145.827
ZACube-1 09 Feb 20:22:17 20:26:26 60° 74° (ENE) 20:30:33 437.345
CANX-2 09 Feb 20:25:04 20:27:49 17° 268° (W) 20:30:35 2200.000
Cosmos 2499 09 Feb 20:29:51 20:38:16 63° 78° (ENE) 20:45:57 435.465 / 435.565
FUNcube-1 09 Feb 20:31:27 20:35:39 73° 74° (ENE) 20:39:47 145.935
AO-85 09 Feb 20:31:40 20:34:38 16° 254° (WSW) 20:37:27 145.980
AIST 2 09 Feb 20:39:07 20:41:17 14° 321° (NW) 20:43:27 435.215
HO-68 09 Feb 20:40:06 20:45:49 25° 267° (W) 20:51:35 435.675
HUMSAT D 09 Feb 20:43:48 20:47:20 29° 70° (ENE) 20:50:54 437.325/437.525
RS-15 09 Feb 20:53:30 21:05:37 75° 243° (WSW) 21:17:52 29.354- 29.394
GONETS M04 09 Feb 20:55:22 21:03:35 47° 272° (W) 21:11:51
CINEMA 3 09 Feb 20:57:05 20:58:53 12° 270° (W) 21:00:40 145.822/145.860
CUBEBUG 2 09 Feb 21:03:31 21:07:03 24° 265° (W) 21:10:31 437.445
UWE-3 09 Feb 21:04:22 21:08:12 31° 263° (W) 21:11:58 435.000/436.395/437.385
Oscar 11 09 Feb 21:05:07 21:09:02 34° 263° (W) 21:13:00 145.826/435.025
UKube-1 09 Feb 21:07:27 21:08:46 11° 61° (ENE) 21:10:04 .
COMPASS 1 09 Feb 21:10:39 21:11:40 11° 271° (W) 21:12:41 437.405
ISS 09 Feb 21:11:39 21:14:43 37° 27° (NNE) 21:17:46 145.825
ESTCUBE 1 09 Feb 21:12:39 21:15:25 16° 63° (ENE) 21:18:12 437.505/2401.250
CUBEBUG 1 09 Feb 21:13:19 21:14:58 12° 61° (ENE) 21:16:35 437.445
DELFI C3 09 Feb 21:16:41 21:20:29 43° 261° (W) 21:24:19 145.870
DX 1 09 Feb 21:17:21 21:20:11 17° 64° (ENE) 21:23:02 434.975-435.025
ANTELSAT 09 Feb 21:21:41 21:24:37 18° 93° (E) 21:27:34 437.575/2403.000
PRISM 09 Feb 21:26:48 21:27:58 11° 299° (WNW) 21:29:07 437.425
TIGRISAT 09 Feb 21:28:27 21:31:37 20° 94° (E) 21:34:49 435.000
50 SAT 09 Feb 21:32:40 21:35:35 22° 68° (ENE) 21:38:30 437.505
AIST 1 09 Feb 21:54:26 21:58:42 53° 266° (W) 22:02:53
ZACube-1 09 Feb 22:01:47 22:03:06 11° 270° (W) 22:04:25 437.345
VELOX 1 09 Feb 22:09:29 22:13:50 54° 73° (ENE) 22:18:12 145.980
UNISAT 6 09 Feb 22:12:10 22:16:29 62° 101° (ESE) 22:20:51 437.425
HUMSAT D 09 Feb 22:19:50 22:23:00 22° 266° (W) 22:26:12 437.325/437.525
Cosmos 2499 09 Feb 22:24:02 22:30:37 27° 279° (W) 22:36:52 435.465 / 435.565
AISAT 09 Feb 22:26:00 22:30:29 85° 74° (ENE) 22:34:58 437.250
POLYITAN 1 09 Feb 22:27:50 22:31:06 22° 94° (E) 22:34:21 437.675
QB50P2 09 Feb 22:28:26 22:31:46 23° 94° (E) 22:35:07 145.880/145.840
BUGSAT 1 09 Feb 22:33:31 22:34:24 11° 90° (E) 22:35:17 437.445
UKube-1 09 Feb 22:39:52 22:44:12 76° 257° (WSW) 22:48:33 .
CUBEBUG 1 09 Feb 22:46:13 22:50:38 74° 257° (WSW) 22:55:06 437.445
ESTCUBE 1 09 Feb 22:47:22 22:51:47 54° 260° (W) 22:56:16 437.505/2401.250
ISS 09 Feb 22:48:16 22:51:05 27° 224° (SW) 22:53:54 145.825
SPROUT 09 Feb 22:49:42 22:53:45 42° 72° (ENE) 22:57:49 437.525
DX 1 09 Feb 22:51:47 22:56:01 47° 260° (W) 23:00:16 434.975-435.025
ANTELSAT 09 Feb 22:57:25 23:01:30 42° 288° (WNW) 23:05:40 437.575/2403.000
POPSAT HIP 1 09 Feb 22:57:42 23:01:45 45° 99° (E) 23:05:46 437.405
TISAT 1 09 Feb 23:00:14 23:03:26 21° 67° (ENE) 23:06:37 437.305
NANOSAT C BR1 09 Feb 23:02:28 23:06:34 50° 100° (E) 23:10:38 145.865
DUCHIFAT 1 09 Feb 23:03:58 23:08:03 50° 100° (E) 23:12:06 145.980
TIGRISAT 09 Feb 23:04:26 23:08:25 37° 289° (WNW) 23:12:27 435.000
50 SAT 09 Feb 23:06:28 23:09:30 24° 264° (W) 23:12:34 437.505
RS-15 09 Feb 23:08:53 23:15:57 18° 264° (W) 23:23:05 29.354- 29.394
QB50P1 09 Feb 23:10:16 23:14:28 65° 101° (E) 23:18:38 145.935-145.965
ITUPSAT 1 09 Feb 23:35:24 23:36:37 11° 58° (ENE) 23:37:49 437.325
PHONESAT 2.4 09 Feb 23:41:43 23:42:49 11° 148° (SSE) 23:43:54 2401.200-2431.200
BEESAT 09 Feb 23:42:47 23:45:02 13° 60° (ENE) 23:47:17 436.000
VELOX 1 09 Feb 23:48:11 23:50:38 14° 269° (W) 23:53:06 145.980
UNISAT 6 09 Feb 23:50:42 23:52:42 13° 297° (WNW) 23:54:44 437.425
Cosmos 2491 09 Feb 23:51:10 23:54:30 12° 55° (NE) 23:57:49 435.465 / 435.565
POLYITAN 1 10 Feb 00:03:13 00:06:57 31° 290° (WNW) 00:10:40 437.675
QB50P2 10 Feb 00:03:55 00:07:36 30° 291° (WNW) 00:11:17 145.880/145.840
BUGSAT 1 10 Feb 00:06:12 00:10:11 59° 286° (WNW) 00:14:08 437.445
CUSAT 1 10 Feb 00:06:24 00:12:14 23° 83° (E) 00:18:07 437.405
Oscar 19 10 Feb 00:24:56 00:28:54 22° 93° (E) 00:32:51 437.125/150
SPROUT 10 Feb 00:27:05 00:29:55 17° 268° (W) 00:32:45 437.525
SWISSCUBE 10 Feb 00:32:26 00:36:55 43° 70° (ENE) 00:41:27 437.505
POPSAT HIP 1 10 Feb 00:34:35 00:37:11 16° 296° (WNW) 00:39:47 437.405
TISAT 1 10 Feb 00:35:03 00:38:54 34° 263° (W) 00:42:46 437.305
DANDE 10 Feb 00:38:46 00:44:39 24° 81° (E) 00:50:55 436.750
NANOSAT C BR1 10 Feb 00:39:33 00:41:53 15° 296° (WNW) 00:44:14 145.865
DUCHIFAT 1 10 Feb 00:41:00 00:43:21 15° 296° (WNW) 00:45:42 145.980
QB50P1 10 Feb 00:48:07 00:49:43 12° 298° (WNW) 00:51:18 145.935-145.965
Gurwin Techsat 1B 10 Feb 00:55:55 00:59:17 17° 91° (E) 01:02:39 435.225
BEESAT 3 10 Feb 00:59:58 01:03:32 30° 49° (NE) 01:07:02 437.485
ITUPSAT 1 10 Feb 01:08:54 01:13:41 89° 87° (E) 01:18:30 437.325
PHONESAT 2.4 10 Feb 01:16:27 01:19:33 39° 162° (SSE) 01:22:39 2401.200-2431.200
BEESAT 10 Feb 01:17:27 01:22:12 74° 258° (WSW) 01:26:59 436.000
KKS-1 10 Feb 01:22:19 01:25:20 18° 64° (ENE) 01:28:22 437.445
BEESAT 2 10 Feb 01:24:02 01:27:44 34° 50° (NE) 01:31:23 435.950
JAS-2 10 Feb 01:28:48 01:34:26 60° 101° (E) 01:39:35 435.910
ITAMSAT 1 10 Feb 01:33:50 01:37:35 20° 93° (E) 01:41:19 435.822/435.867
Cosmos 2491 10 Feb 01:44:42 01:53:24 63° 79° (ENE) 02:02:03 435.465 / 435.565
CUSAT 1 10 Feb 01:45:44 01:53:42 81° 280° (W) 02:01:47 437.405
Oscar 19 10 Feb 02:03:33 02:08:25 44° 290° (WNW) 02:13:14 437.125/150
SWISSCUBE 10 Feb 02:11:24 02:14:54 20° 267° (W) 02:18:26 437.505
DANDE 10 Feb 02:18:56 02:26:40 79° 281° (W) 02:35:14 436.750
AO-7 10 Feb 02:21:55 02:27:46 21° 91° (E) 02:33:34 29.400- 29.500
Gurwin Techsat 1B 10 Feb 02:34:24 02:39:39 62° 287° (WNW) 02:44:53 435.225
YUBILEINY 10 Feb 02:34:24 02:42:51 55° 90° (E) 02:51:21 435.215
BEESAT 3 10 Feb 02:37:55 02:41:10 24° 246° (WSW) 02:44:22 437.485
STARS 10 Feb 02:39:59 02:44:20 63° 74° (ENE) 02:48:42 437.465
MOZHAYETS 4 10 Feb 02:50:49 02:55:16 55° 73° (ENE) 02:59:46
PHONESAT 2.4 10 Feb 02:53:23 02:56:40 72° 178° (S) 02:59:55 2401.200-2431.200
KKS-1 10 Feb 02:57:17 03:01:34 45° 261° (W) 03:05:53 437.445
BEESAT 2 10 Feb 03:02:22 03:05:26 21° 248° (WSW) 03:08:28 435.950
ITAMSAT 1 10 Feb 03:12:16 03:17:21 52° 289° (WNW) 03:22:25 435.822/435.867
JAS-2 10 Feb 03:15:05 03:18:56 19° 301° (WNW) 03:22:34 435.910
AIST 2 10 Feb 03:19:18 03:23:24 58° 54° (NE) 03:27:27 435.215
CUSAT 1 10 Feb 03:31:47 03:37:09 19° 299° (WNW) 03:42:29 437.405
CUBESAT XI-V 10 Feb 03:33:19 03:36:24 18° 64° (ENE) 03:39:29 437.345
Cosmos 2491 10 Feb 03:42:31 03:49:33 28° 278° (W) 03:56:36 435.465 / 435.565
SO-50 10 Feb 04:03:20 04:07:42 34° 114° (ESE) 04:12:08 436.795
Cosmos 2504 10 Feb 04:05:12 04:13:11 46° 87° (E) 04:21:29 435.465 / 435.565
DANDE 10 Feb 04:05:40 04:11:04 19° 301° (WNW) 04:16:40 436.750
HORYU 2 10 Feb 04:14:59 04:19:25 65° 102° (ESE) 04:23:50 437.375
STARS 10 Feb 04:19:25 04:21:07 12° 270° (W) 04:22:48 437.465
